Location: ????????
(55.4717°N, 39.1821°E)
Time: 09:57:02
(UTC+00:00)

Cosmos 2026 Rocket - Pass Details

Date: 14 April 2024
Orbit: 938 x 1001 km, 82.9° (Epoch: 27 May)

Event Time Altitude Azimuth Distance (km) Brightness Sun altitude
Exits shadow 00:49:31 - 190° (S) 3,096 6.2 -12.2°
Reaches altitude 10° 00:50:29 10° 191° (S) 2,738 5.9 -12.1°
Maximum altitude 00:56:48 87° 282° (WNW) 1,004 4.1 -11.4°
Drops below altitude 10° 01:03:14 10° 11° (N) 2,784 7.1 -10.7°
Sets 01:05:47 0° 12° (NNE) 3,740 7.8 -10.4°
